| time (UTC) | temp C | wind direction | speed KPH | gust KPH | rain 1hr cm | rain 24hr cm | rain mn cm | humidity % | barometer mb |
| 20260905143745 | 11 | 174 | 14.5 | 19.3 | 0.00 | 0.00 | 0.00 | 100 | 733.1 |
| 20260905143245 | 11 | 182 | 12.9 | 20.9 | 0.00 | 0.00 | 0.00 | 100 | 733.1 |
| 20260905142745 | 11 | 172 | 14.5 | 20.9 | 0.00 | 0.00 | 0.00 | 100 | 733.1 |
| 20260905142245 | 11 | 177 | 12.9 | 20.9 | 0.00 | 0.00 | 0.00 | 100 | 733.1 |
| 20260905141745 | 11 | 176 | 14.5 | 20.9 | 0.00 | 0.00 | 0.00 | 100 | 733.1 |
| 20260905141245 | 11 | 182 | 16.1 | 22.5 | 0.00 | 0.00 | 0.00 | 99 | 733.1 |
| 20260905140745 | 11 | 181 | 14.5 | 19.3 | 0.00 | 0.00 | 0.00 | 99 | 732.8 |
| 20260905140248 | 11 | 182 | 16.1 | 22.5 | 0.00 | 0.00 | 0.00 | 99 | 732.8 |
| 20260905135745 | 11 | 182 | 16.1 | 22.5 | 0.00 | 0.00 | 0.00 | 99 | 732.8 |
| 20260905135245 | 11 | 181 | 14.5 | 25.7 | 0.00 | 0.00 | 0.00 | 98 | 732.8 |
| 20260905134745 | 11 | 181 | 17.7 | 25.7 | 0.00 | 0.00 | 0.00 | 98 | 732.8 |
| 20260905134245 | 11 | 180 | 16.1 | 22.5 | 0.00 | 0.00 | 0.00 | 98 | 732.8 |
| 20260905133745 | 11 | 183 | 17.7 | 24.1 | 0.00 | 0.00 | 0.00 | 98 | 732.5 |
| 20260905133245 | 11 | 183 | 14.5 | 24.1 | 0.00 | 0.00 | 0.00 | 98 | 732.5 |
| 20260905132745 | 11 | 183 | 14.5 | 22.5 | 0.00 | 0.00 | 0.00 | 98 | 732.5 |
| 20260905132245 | 11 | 182 | 14.5 | 22.5 | 0.00 | 0.00 | 0.00 | 98 | 732.5 |
| 20260905131745 | 11 | 183 | 14.5 | 20.9 | 0.00 | 0.00 | 0.00 | 99 | 732.5 |
| 20260905131248 | 10 | 182 | 12.9 | 19.3 | 0.00 | 0.00 | 0.00 | 100 | 732.5 |
| 20260905130748 | 10 | 182 | 12.9 | 17.7 | 0.00 | 0.00 | 0.00 | 100 | 732.1 |
| 20260905130245 | 10 | 184 | 14.5 | 19.3 | 0.00 | 0.00 | 0.00 | 100 | 732.1 |
| 20260905125745 | 10 | 184 | 14.5 | 19.3 | 0.00 | 0.00 | 0.00 | 100 | 732.1 |
| 20260905125245 | 10 | 184 | 14.5 | 17.7 | 0.00 | 0.00 | 0.00 | 100 | 732.1 |
| 20260905124745 | 10 | 183 | 14.5 | 20.9 | 0.00 | 0.00 | 0.00 | 100 | 732.1 |
| 20260905124248 | 10 | 184 | 16.1 | 22.5 | 0.00 | 0.00 | 0.00 | 100 | 732.1 |
| 20260905123745 | 10 | 183 | 17.7 | 20.9 | 0.00 | 0.00 | 0.00 | 100 | 732.1 |
| 20260905123245 | 11 | 183 | 16.1 | 19.3 | 0.00 | 0.00 | 0.00 | 100 | 732.1 |
| 20260905122745 | 11 | 181 | 14.5 | 19.3 | 0.00 | 0.00 | 0.00 | 100 | 732.1 |
| 20260905122245 | 11 | 179 | 12.9 | 19.3 | 0.00 | 0.00 | 0.00 | 99 | 732.1 |
| 20260905121746 | 11 | 179 | 12.9 | 20.9 | 0.00 | 0.00 | 0.00 | 99 | 732.1 |
| 20260905121247 | 11 | 183 | 12.9 | 17.7 | 0.00 | 0.00 | 0.00 | 98 | 732.1 |
| 20260905120745 | 11 | 182 | 12.9 | 14.5 | 0.00 | 0.00 | 0.00 | 98 | 732.1 |
| 20260905120245 | 11 | 178 | 11.3 | 16.1 | 0.00 | 0.00 | 0.00 | 97 | 732.1 |
| 20260905115745 | 11 | 181 | 11.3 | 14.5 | 0.00 | 0.00 | 0.00 | 97 | 732.1 |
| 20260905115245 | 11 | 180 | 11.3 | 14.5 | 0.00 | 0.00 | 0.00 | 97 | 732.1 |
| 20260905114745 | 11 | 182 | 11.3 | 12.9 | 0.00 | 0.00 | 0.00 | 97 | 732.1 |
| 20260905114245 | 11 | 183 | 11.3 | 14.5 | 0.00 | 0.00 | 0.00 | 97 | 732.1 |
| 20260905113745 | 11 | 185 | 12.9 | 14.5 | 0.00 | 0.00 | 0.00 | 97 | 731.8 |
| 20260905113245 | 11 | 182 | 11.3 | 16.1 | 0.00 | 0.00 | 0.00 | 96 | 732.1 |
| 20260905112745 | 11 | 183 | 12.9 | 16.1 | 0.00 | 0.00 | 0.00 | 96 | 732.1 |
| 20260905112248 | 11 | 186 | 11.3 | 16.1 | 0.00 | 0.00 | 0.00 | 96 | 732.1 |
| 20260905111745 | 11 | 188 | 11.3 | 16.1 | 0.00 | 0.00 | 0.00 | 95 | 732.1 |
| 20260905111245 | 11 | 187 | 11.3 | 19.3 | 0.00 | 0.00 | 0.00 | 94 | 732.1 |
| 20260905110748 | 11 | 184 | 12.9 | 19.3 | 0.00 | 0.00 | 0.00 | 93 | 732.1 |
| 20260905110245 | 11 | 186 | 12.9 | 17.7 | 0.00 | 0.00 | 0.00 | 94 | 732.1 |
| 20260905105748 | 11 | 183 | 14.5 | 19.3 | 0.00 | 0.00 | 0.00 | 94 | 732.1 |
| 20260905105248 | 11 | 185 | 14.5 | 17.7 | 0.00 | 0.00 | 0.00 | 94 | 732.1 |
| 20260905104748 | 11 | 184 | 12.9 | 17.7 | 0.00 | 0.00 | 0.00 | 94 | 732.1 |
| 20260905104245 | 11 | 184 | 12.9 | 16.1 | 0.00 | 0.00 | 0.00 | 95 | 732.1 |
| 20260905103745 | 11 | 183 | 11.3 | 17.7 | 0.00 | 0.00 | 0.00 | 94 | 732.1 |
| 20260905103248 | 11 | 185 | 14.5 | 20.9 | 0.00 | 0.00 | 0.00 | 94 | 732.1 |
| 20260905102745 | 11 | 186 | 14.5 | 17.7 | 0.00 | 0.00 | 0.00 | 94 | 732.1 |
| 20260905102245 | 11 | 184 | 14.5 | 19.3 | 0.00 | 0.00 | 0.00 | 94 | 732.1 |
| 20260905101745 | 11 | 185 | 14.5 | 20.9 | 0.00 | 0.00 | 0.00 | 94 | 732.1 |
| 20260905101245 | 11 | 184 | 14.5 | 20.9 | 0.00 | 0.00 | 0.00 | 93 | 732.1 |
| 20260905100745 | 11 | 186 | 14.5 | 20.9 | 0.00 | 0.00 | 0.00 | 93 | 732.1 |
| 20260905100245 | 11 | 186 | 16.1 | 19.3 | 0.00 | 0.00 | 0.00 | 93 | 732.1 |
| 20260905095745 | 11 | 187 | 16.1 | 19.3 | 0.00 | 0.00 | 0.00 | 93 | 732.1 |
| 20260905095245 | 11 | 186 | 14.5 | 20.9 | 0.00 | 0.00 | 0.00 | 93 | 732.1 |
| 20260905094748 | 11 | 187 | 14.5 | 20.9 | 0.00 | 0.00 | 0.00 | 92 | 732.1 |
| 20260905094245 | 11 | 187 | 16.1 | 19.3 | 0.00 | 0.00 | 0.00 | 93 | 732.1 |
| 20260905093745 | 11 | 185 | 14.5 | 20.9 | 0.00 | 0.00 | 0.00 | 92 | 732.1 |
| 20260905093245 | 11 | 185 | 16.1 | 20.9 | 0.00 | 0.00 | 0.00 | 92 | 732.1 |
| 20260905092748 | 11 | 186 | 14.5 | 19.3 | 0.00 | 0.00 | 0.00 | 91 | 732.1 |
| 20260905092245 | 11 | 184 | 16.1 | 20.9 | 0.00 | 0.00 | 0.00 | 91 | 732.1 |
| 20260905091745 | 11 | 186 | 17.7 | 22.5 | 0.00 | 0.00 | 0.00 | 91 | 732.1 |
| 20260905091245 | 11 | 187 | 14.5 | 22.5 | 0.00 | 0.00 | 0.00 | 91 | 732.5 |
| 20260905090745 | 11 | 182 | 14.5 | 22.5 | 0.00 | 0.00 | 0.00 | 90 | 732.1 |
| 20260905090245 | 11 | 186 | 16.1 | 22.5 | 0.00 | 0.00 | 0.00 | 90 | 732.1 |
| 20260905085745 | 11 | 182 | 12.9 | 24.1 | 0.00 | 0.00 | 0.00 | 90 | 732.5 |
| 20260905085245 | 11 | 176 | 14.5 | 22.5 | 0.00 | 0.00 | 0.00 | 89 | 732.5 |
| 20260905084745 | 11 | 186 | 17.7 | 25.7 | 0.00 | 0.00 | 0.00 | 89 | 732.5 |
| 20260905084245 | 11 | 181 | 16.1 | 24.1 | 0.00 | 0.00 | 0.00 | 89 | 732.5 |
| 20260905083748 | 11 | 180 | 16.1 | 24.1 | 0.00 | 0.00 | 0.00 | 89 | 732.5 |
| 20260905083245 | 11 | 182 | 17.7 | 25.7 | 0.00 | 0.00 | 0.00 | 88 | 732.5 |
| 20260905082745 | 11 | 179 | 16.1 | 22.5 | 0.00 | 0.00 | 0.00 | 88 | 732.5 |
| 20260905082245 | 11 | 179 | 14.5 | 22.5 | 0.00 | 0.00 | 0.00 | 88 | 732.8 |
| 20260905081745 | 11 | 180 | 16.1 | 25.7 | 0.00 | 0.00 | 0.00 | 88 | 732.5 |
| 20260905081245 | 11 | 181 | 16.1 | 22.5 | 0.00 | 0.00 | 0.00 | 89 | 732.8 |
| 20260905080748 | 11 | 176 | 14.5 | 20.9 | 0.00 | 0.00 | 0.00 | 88 | 732.8 |
| 20260905080245 | 11 | 178 | 14.5 | 20.9 | 0.00 | 0.00 | 0.00 | 88 | 732.8 |
| 20260905075745 | 11 | 180 | 12.9 | 20.9 | 0.00 | 0.00 | 0.00 | 88 | 732.8 |
| 20260905075248 | 11 | 174 | 14.5 | 20.9 | 0.00 | 0.00 | 0.00 | 88 | 732.8 |
| 20260905074748 | 11 | 177 | 14.5 | 20.9 | 0.00 | 0.00 | 0.00 | 87 | 732.8 |
| 20260905074245 | 11 | 180 | 16.1 | 24.1 | 0.00 | 0.00 | 0.00 | 88 | 732.8 |
| 20260905073748 | 11 | 179 | 16.1 | 24.1 | 0.00 | 0.00 | 0.00 | 88 | 732.8 |
| 20260905073245 | 11 | 180 | 16.1 | 25.7 | 0.00 | 0.00 | 0.00 | 88 | 732.8 |
| 20260905072745 | 11 | 181 | 19.3 | 25.7 | 0.00 | 0.00 | 0.00 | 87 | 732.8 |
| 20260905072245 | 11 | 180 | 17.7 | 25.7 | 0.00 | 0.00 | 0.00 | 87 | 732.8 |
| 20260905071748 | 11 | 181 | 16.1 | 22.5 | 0.00 | 0.00 | 0.00 | 86 | 732.8 |
| 20260905071245 | 11 | 176 | 14.5 | 22.5 | 0.00 | 0.00 | 0.00 | 84 | 732.8 |
| 20260905070745 | 11 | 180 | 16.1 | 24.1 | 0.00 | 0.00 | 0.00 | 83 | 732.8 |
| 20260905070248 | 11 | 177 | 14.5 | 20.9 | 0.00 | 0.00 | 0.00 | 85 | 732.8 |
| 20260905065745 | 11 | 178 | 16.1 | 20.9 | 0.00 | 0.00 | 0.00 | 84 | 732.8 |
| 20260905065245 | 11 | 176 | 14.5 | 20.9 | 0.00 | 0.00 | 0.00 | 80 | 732.8 |
| 20260905064748 | 12 | 175 | 14.5 | 24.1 | 0.00 | 0.00 | 0.00 | 78 | 732.8 |
| 20260905064245 | 12 | 175 | 16.1 | 24.1 | 0.00 | 0.00 | 0.00 | 77 | 732.8 |
| 20260905063745 | 12 | 176 | 14.5 | 20.9 | 0.00 | 0.00 | 0.00 | 76 | 732.8 |
| 20260905063245 | 12 | 175 | 16.1 | 24.1 | 0.00 | 0.00 | 0.00 | 74 | 732.8 |
| 20260905062745 | 12 | 176 | 14.5 | 22.5 | 0.00 | 0.00 | 0.00 | 70 | 732.8 |
| 20260905062246 | 12 | 172 | 16.1 | 24.1 | 0.00 | 0.00 | 0.00 | 69 | 732.8 |
| 20260905061745 | 12 | 175 | 16.1 | 24.1 | 0.00 | 0.00 | 0.00 | 66 | 732.8 |
| 20260905061245 | 12 | 174 | 16.1 | 22.5 | 0.00 | 0.00 | 0.00 | 65 | 732.8 |
| 20260905060745 | 11 | 177 | 14.5 | 24.1 | 0.00 | 0.00 | 0.00 | 64 | 732.8 |
| 20260905060245 | 12 | 173 | 16.1 | 24.1 | 0.00 | 0.00 | 0.00 | 63 | 732.8 |
| 20260905055745 | 12 | 179 | 16.1 | 24.1 | 0.00 | 0.00 | 0.00 | 63 | 732.8 |
| 20260905055253 | 11 | 182 | 12.9 | 19.3 | 0.00 | 0.00 | 0.00 | 63 | 732.8 |
| 20260905054745 | 12 | 173 | 14.5 | 24.1 | 0.00 | 0.00 | 0.00 | 63 | 732.8 |
| 20260905054245 | 12 | 176 | 16.1 | 22.5 | 0.00 | 0.00 | 0.00 | 63 | 732.8 |
| 20260905053751 | 11 | 171 | 14.5 | 20.9 | 0.00 | 0.00 | 0.00 | 63 | 732.8 |
| 20260905053246 | 12 | 174 | 14.5 | 20.9 | 0.00 | 0.00 | 0.00 | 63 | 732.8 |
| 20260905052745 | 12 | 178 | 14.5 | 24.1 | 0.00 | 0.00 | 0.00 | 63 | 732.8 |
| 20260905052245 | 12 | 173 | 14.5 | 20.9 | 0.00 | 0.00 | 0.00 | 63 | 733.1 |
| 20260905051748 | 12 | 176 | 11.3 | 17.7 | 0.00 | 0.00 | 0.00 | 63 | 733.1 |
| 20260905051245 | 12 | 174 | 12.9 | 19.3 | 0.00 | 0.00 | 0.00 | 62 | 733.1 |
| 20260905050745 | 11 | 172 | 12.9 | 17.7 | 0.00 | 0.00 | 0.00 | 65 | 732.8 |
| 20260905050245 | 11 | 173 | 12.9 | 19.3 | 0.00 | 0.00 | 0.00 | 67 | 732.8 |
| 20260905045745 | 11 | 170 | 14.5 | 19.3 | 0.00 | 0.00 | 0.00 | 69 | 732.8 |
| 20260905045250 | 12 | 175 | 12.9 | 17.7 | 0.00 | 0.00 | 0.00 | 65 | 732.8 |
| 20260905044745 | 11 | 170 | 14.5 | 19.3 | 0.00 | 0.00 | 0.00 | 66 | 732.8 |
| 20260905044245 | 11 | 173 | 12.9 | 17.7 | 0.00 | 0.00 | 0.00 | 70 | 732.8 |
| 20260905043750 | 11 | 172 | 14.5 | 17.7 | 0.00 | 0.00 | 0.00 | 70 | 732.8 |
| 20260905043248 | 11 | 171 | 12.9 | 17.7 | 0.00 | 0.00 | 0.00 | 70 | 732.8 |
| 20260905042745 | 11 | 175 | 12.9 | 17.7 | 0.00 | 0.00 | 0.00 | 71 | 732.8 |
| 20260905042245 | 11 | 176 | 11.3 | 17.7 | 0.00 | 0.00 | 0.00 | 69 | 732.8 |
| 20260905041748 | 11 | 176 | 12.9 | 17.7 | 0.00 | 0.00 | 0.00 | 70 | 732.8 |
| 20260905041245 | 11 | 176 | 12.9 | 17.7 | 0.00 | 0.00 | 0.00 | 71 | 732.5 |
| 20260905040745 | 11 | 176 | 12.9 | 17.7 | 0.00 | 0.00 | 0.00 | 70 | 732.5 |
| 20260905040245 | 11 | 177 | 12.9 | 17.7 | 0.00 | 0.00 | 0.00 | 70 | 732.5 |
| 20260905035745 | 11 | 173 | 12.9 | 16.1 | 0.00 | 0.00 | 0.00 | 70 | 732.5 |
| 20260905035245 | 11 | 175 | 11.3 | 16.1 | 0.00 | 0.00 | 0.00 | 69 | 732.5 |
| 20260905034745 | 11 | 175 | 11.3 | 16.1 | 0.00 | 0.00 | 0.00 | 69 | 732.5 |
| 20260905034248 | 11 | 175 | 11.3 | 14.5 | 0.00 | 0.00 | 0.00 | 69 | 732.5 |
| 20260905033753 | 11 | 170 | 11.3 | 14.5 | 0.00 | 0.00 | 0.00 | 68 | 732.5 |
| 20260905033247 | 11 | 170 | 9.7 | 12.9 | 0.00 | 0.00 | 0.00 | 68 | 732.5 |
| 20260905032745 | 11 | 170 | 9.7 | 11.3 | 0.00 | 0.00 | 0.00 | 67 | 732.5 |
| 20260905032245 | 11 | 171 | 8.0 | 11.3 | 0.00 | 0.00 | 0.00 | 67 | 732.1 |
| 20260905031745 | 12 | 172 | 8.0 | 9.7 | 0.00 | 0.00 | 0.00 | 68 | 732.5 |
| 20260905031245 | 12 | 175 | 6.4 | 9.7 | 0.00 | 0.00 | 0.00 | 68 | 732.5 |
| 20260905030745 | 12 | 177 | 6.4 | 8.0 | 0.00 | 0.00 | 0.00 | 73 | 732.1 |
| 20260905030245 | 12 | 170 | 4.8 | 6.4 | 0.00 | 0.00 | 0.00 | 75 | 732.1 |
| 20260905025744 | 12 | 161 | 3.2 | 6.4 | 0.00 | 0.00 | 0.00 | 76 | 732.1 |
| 20260905025247 | 12 | 159 | 1.6 | 6.4 | 0.00 | 0.00 | 0.00 | 77 | 732.1 |
| 20260905024747 | 12 | 167 | 3.2 | 4.8 | 0.00 | 0.00 | 0.00 | 76 | 732.1 |
| 20260905024248 | 12 | 168 | 3.2 | 6.4 | 0.00 | 0.00 | 0.00 | 78 | 732.1 |
| 20260905023745 | 12 | 149 | 1.6 | 3.2 | 0.00 | 0.00 | 0.00 | 90 | 732.1 |
| 20260905023245 | 12 | 297 | 0.0 | 1.6 | 0.00 | 0.00 | 0.00 | 95 | 732.1 |
| 20260905022745 | 12 | 69 | 1.6 | 3.2 | 0.00 | 0.00 | 0.00 | 84 | 732.1 |
| 20260905022251 | 12 | 82 | 0.0 | 3.2 | 0.00 | 0.00 | 0.00 | 96 | 732.1 |
| 20260905021745 | 12 | 64 | 1.6 | 3.2 | 0.00 | 0.00 | 0.00 | 97 | 732.1 |
| 20260905021251 | 12 | 26 | 3.2 | 4.8 | 0.00 | 0.00 | 0.00 | 96 | 732.1 |
| 20260905020745 | 12 | 358 | 3.2 | 4.8 | 0.00 | 0.00 | 0.00 | 95 | 732.1 |
| 20260905020250 | 13 | 354 | 3.2 | 4.8 | 0.00 | 0.00 | 0.00 | 90 | 732.1 |
| 20260905015751 | 13 | 318 | 1.6 | 4.8 | 0.00 | 0.00 | 0.00 | 73 | 732.1 |
| 20260905015245 | 13 | 329 | 1.6 | 3.2 | 0.00 | 0.00 | 0.00 | 73 | 732.1 |
| 20260905014745 | 13 | 318 | 1.6 | 4.8 | 0.00 | 0.00 | 0.00 | 72 | 732.1 |
| 20260905014245 | 13 | 331 | 3.2 | 4.8 | 0.00 | 0.00 | 0.00 | 72 | 732.1 |
| 20260905013745 | 13 | 319 | 1.6 | 6.4 | 0.00 | 0.00 | 0.00 | 72 | 732.1 |
| 20260905013245 | 13 | 305 | 3.2 | 8.0 | 0.00 | 0.00 | 0.00 | 71 | 732.1 |
| 20260905012745 | 13 | 329 | 4.8 | 8.0 | 0.00 | 0.00 | 0.00 | 71 | 732.1 |
| 20260905012248 | 13 | 324 | 4.8 | 11.3 | 0.00 | 0.00 | 0.00 | 71 | 732.1 |
| 20260905011745 | 14 | 331 | 6.4 | 9.7 | 0.00 | 0.00 | 0.00 | 72 | 732.1 |
| 20260905011245 | 14 | 331 | 1.6 | 8.0 | 0.00 | 0.00 | 0.00 | 83 | 732.5 |
| 20260905010745 | 14 | 26 | 3.2 | 4.8 | 0.00 | 0.00 | 0.00 | 71 | 732.5 |
| 20260905010245 | 14 | 244 | 1.6 | 4.8 | 0.00 | 0.00 | 0.00 | 81 | 732.5 |
| 20260905005748 | 15 | 332 | 1.6 | 8.0 | 0.00 | 0.00 | 0.00 | 79 | 732.5 |
| 20260905005245 | 15 | 161 | 0.0 | 8.0 | 0.00 | 0.00 | 0.00 | 77 | 732.5 |
| 20260905004745 | 15 | 110 | 1.6 | 8.0 | 0.00 | 0.00 | 0.00 | 70 | 732.5 |
| 20260905004245 | 15 | 153 | 0.0 | 8.0 | 0.00 | 0.00 | 0.00 | 57 | 732.5 |
| 20260905003745 | 16 | 13 | 3.2 | 9.7 | 0.00 | 0.00 | 0.00 | 58 | 732.5 |
| 20260905003244 | 16 | 172 | 3.2 | 12.9 | 0.00 | 0.00 | 0.00 | 60 | 732.5 |
| 20260905002745 | 16 | 188 | 6.4 | 12.9 | 0.00 | 0.00 | 0.00 | 58 | 732.1 |
| 20260905002245 | 15 | 234 | 1.6 | 8.0 | 0.00 | 0.00 | 0.00 | 58 | 732.5 |
| 20260905001750 | 15 | 193 | 3.2 | 11.3 | 0.00 | 0.00 | 0.00 | 57 | 732.5 |
| 20260905001245 | 15 | 196 | 4.8 | 14.5 | 0.00 | 0.00 | 0.00 | 57 | 732.5 |
| 20260905000745 | 15 | 199 | 4.8 | 16.1 | 0.00 | 0.00 | 0.00 | 55 | 732.5 |
| 20260905000245 | 16 | 178 | 4.8 | 14.5 | 0.00 | 0.00 | 0.00 | 55 | 732.5 |
| 20260904235749 | 16 | 238 | 1.6 | 16.1 | 0.00 | 0.00 | 0.00 | 61 | 732.5 |
| 20260904235250 | 16 | 182 | 8.0 | 16.1 | 0.00 | 0.00 | 0.00 | 57 | 732.1 |
| 20260904234750 | 16 | 160 | 1.6 | 12.9 | 0.00 | 0.00 | 0.00 | 54 | 732.1 |
| 20260904234245 | 16 | 185 | 6.4 | 12.9 | 0.00 | 0.00 | 0.00 | 53 | 732.5 |
| 20260904233745 | 16 | 208 | 4.8 | 12.9 | 0.00 | 0.00 | 0.00 | 51 | 732.1 |
| 20260904233250 | 17 | 163 | 4.8 | 11.3 | 0.00 | 0.00 | 0.00 | 52 | 732.5 |
| 20260904232750 | 17 | 204 | 3.2 | 17.7 | 0.00 | 0.00 | 0.00 | 56 | 732.5 |
| 20260904232253 | 16 | 183 | 6.4 | 17.7 | 0.00 | 0.00 | 0.00 | 57 | 732.5 |
| 20260904231750 | 16 | 211 | 3.2 | 14.5 | 0.00 | 0.00 | 0.00 | 54 | 732.5 |
| 20260904231256 | 17 | 196 | 4.8 | 12.9 | 0.00 | 0.00 | 0.00 | 54 | 732.5 |
| 20260904230745 | 16 | 183 | 6.4 | 14.5 | 0.00 | 0.00 | 0.00 | 50 | 732.5 |
| 20260904230245 | 17 | 181 | 6.4 | 11.3 | 0.00 | 0.00 | 0.00 | 51 | 732.5 |
| 20260904225751 | 17 | 196 | 6.4 | 12.9 | 0.00 | 0.00 | 0.00 | 52 | 732.5 |
| 20260904225253 | 16 | 239 | 3.2 | 11.3 | 0.00 | 0.00 | 0.00 | 50 | 732.5 |
| 20260904224750 | 17 | 191 | 6.4 | 14.5 | 0.00 | 0.00 | 0.00 | 50 | 732.5 |
| 20260904224245 | 16 | 199 | 8.0 | 17.7 | 0.00 | 0.00 | 0.00 | 48 | 732.5 |
| 20260904223746 | 16 | 162 | 4.8 | 17.7 | 0.00 | 0.00 | 0.00 | 50 | 732.5 |
| 20260904223245 | 17 | 197 | 8.0 | 16.1 | 0.00 | 0.00 | 0.00 | 51 | 732.5 |
| 20260904222745 | 17 | 194 | 6.4 | 17.7 | 0.00 | 0.00 | 0.00 | 52 | 732.5 |
| 20260904222248 | 16 | 182 | 6.4 | 20.9 | 0.00 | 0.00 | 0.00 | 52 | 732.5 |
| 20260904221745 | 17 | 212 | 6.4 | 14.5 | 0.00 | 0.00 | 0.00 | 53 | 732.5 |
| 20260904221248 | 16 | 208 | 4.8 | 17.7 | 0.00 | 0.00 | 0.00 | 53 | 732.8 |
| 20260904220745 | 16 | 145 | 4.8 | 20.9 | 0.00 | 0.00 | 0.00 | 50 | 732.5 |
| 20260904220246 | 16 | 202 | 9.7 | 24.1 | 0.00 | 0.00 | 0.00 | 53 | 732.8 |
| 20260904215745 | 16 | 206 | 6.4 | 20.9 | 0.00 | 0.00 | 0.00 | 53 | 732.8 |
| 20260904215245 | 16 | 189 | 12.9 | 24.1 | 0.00 | 0.00 | 0.00 | 53 | 732.8 |
| 20260904214750 | 16 | 196 | 8.0 | 22.5 | 0.00 | 0.00 | 0.00 | 54 | 732.8 |
| 20260904214245 | 16 | 200 | 8.0 | 24.1 | 0.00 | 0.00 | 0.00 | 53 | 732.8 |
| 20260904213745 | 16 | 195 | 8.0 | 22.5 | 0.00 | 0.00 | 0.00 | 50 | 732.8 |
| 20260904213245 | 16 | 187 | 14.5 | 25.7 | 0.00 | 0.00 | 0.00 | 53 | 732.8 |
| 20260904212746 | 16 | 189 | 12.9 | 24.1 | 0.00 | 0.00 | 0.00 | 55 | 732.8 |
| 20260904212248 | 16 | 189 | 12.9 | 25.7 | 0.00 | 0.00 | 0.00 | 54 | 732.8 |
| 20260904211745 | 16 | 185 | 11.3 | 25.7 | 0.00 | 0.00 | 0.00 | 54 | 732.8 |
| 20260904211245 | 16 | 171 | 16.1 | 24.1 | 0.00 | 0.00 | 0.00 | 52 | 732.8 |
| 20260904210745 | 16 | 176 | 12.9 | 22.5 | 0.00 | 0.00 | 0.00 | 50 | 732.8 |
| 20260904210245 | 16 | 189 | 14.5 | 22.5 | 0.00 | 0.00 | 0.00 | 53 | 732.8 |
| 20260904205744 | 16 | 193 | 9.7 | 22.5 | 0.00 | 0.00 | 0.00 | 53 | 732.8 |
| 20260904205245 | 16 | 192 | 9.7 | 24.1 | 0.00 | 0.00 | 0.00 | 54 | 732.8 |
| 20260904204745 | 16 | 204 | 6.4 | 20.9 | 0.00 | 0.00 | 0.00 | 53 | 732.8 |
| 20260904204248 | 16 | 202 | 11.3 | 25.7 | 0.00 | 0.00 | 0.00 | 49 | 732.8 |
| 20260904203748 | 16 | 187 | 9.7 | 20.9 | 0.00 | 0.00 | 0.00 | 51 | 732.8 |
| 20260904203247 | 16 | 191 | 8.0 | 29.0 | 0.00 | 0.00 | 0.00 | 49 | 732.8 |
| 20260904202748 | 15 | 199 | 11.3 | 25.7 | 0.00 | 0.00 | 0.00 | 53 | 732.8 |
| 20260904202245 | 15 | 185 | 11.3 | 25.7 | 0.00 | 0.00 | 0.00 | 49 | 732.8 |
| 20260904201748 | 16 | 193 | 11.3 | 24.1 | 0.00 | 0.00 | 0.00 | 53 | 732.8 |
| 20260904201245 | 15 | 186 | 14.5 | 29.0 | 0.00 | 0.00 | 0.00 | 53 | 732.8 |
| 20260904200745 | 15 | 183 | 12.9 | 25.7 | 0.00 | 0.00 | 0.00 | 56 | 732.8 |
| 20260904200245 | 15 | 177 | 17.7 | 25.7 | 0.00 | 0.00 | 0.00 | 53 | 732.8 |
| 20260904195748 | 15 | 174 | 14.5 | 24.1 | 0.00 | 0.00 | 0.00 | 53 | 732.8 |
| 20260904195245 | 15 | 186 | 11.3 | 24.1 | 0.00 | 0.00 | 0.00 | 58 | 732.8 |
| 20260904194745 | 15 | 177 | 12.9 | 27.4 | 0.00 | 0.00 | 0.00 | 54 | 732.8 |
| 20260904194245 | 15 | 186 | 17.7 | 27.4 | 0.00 | 0.00 | 0.00 | 58 | 732.8 |
| 20260904193745 | 15 | 195 | 12.9 | 30.6 | 0.00 | 0.00 | 0.00 | 55 | 732.8 |
| 20260904193244 | 15 | 177 | 14.5 | 33.8 | 0.00 | 0.00 | 0.00 | 58 | 732.8 |
| 20260904192748 | 15 | 188 | 14.5 | 33.8 | 0.00 | 0.00 | 0.00 | 60 | 732.8 |
| 20260904192245 | 15 | 187 | 14.5 | 30.6 | 0.00 | 0.00 | 0.00 | 56 | 733.1 |
| 20260904191744 | 15 | 191 | 6.4 | 20.9 | 0.00 | 0.00 | 0.00 | 57 | 733.1 |
| 20260904191245 | 15 | 199 | 9.7 | 33.8 | 0.00 | 0.00 | 0.00 | 61 | 733.1 |
| 20260904190747 | 15 | 190 | 12.9 | 33.8 | 0.00 | 0.00 | 0.00 | 60 | 733.1 |
| 20260904190251 | 15 | 188 | 8.0 | 27.4 | 0.00 | 0.00 | 0.00 | 61 | 733.1 |
| 20260904185745 | 15 | 188 | 12.9 | 27.4 | 0.00 | 0.00 | 0.00 | 61 | 733.1 |
| 20260904185248 | 15 | 169 | 14.5 | 25.7 | 0.00 | 0.00 | 0.00 | 66 | 733.1 |
| 20260904184745 | 14 | 193 | 12.9 | 29.0 | 0.00 | 0.00 | 0.00 | 64 | 733.1 |
| 20260904184244 | 15 | 187 | 19.3 | 25.7 | 0.00 | 0.00 | 0.00 | 63 | 733.1 |
| 20260904183745 | 14 | 188 | 12.9 | 32.2 | 0.00 | 0.00 | 0.00 | 68 | 733.1 |
| 20260904183248 | 15 | 188 | 14.5 | 24.1 | 0.00 | 0.00 | 0.00 | 65 | 733.1 |
| 20260904182744 | 15 | 188 | 11.3 | 27.4 | 0.00 | 0.00 | 0.00 | 66 | 733.1 |
| 20260904182245 | 14 | 173 | 16.1 | 27.4 | 0.00 | 0.00 | 0.00 | 66 | 733.1 |
| 20260904181744 | 14 | 181 | 14.5 | 27.4 | 0.00 | 0.00 | 0.00 | 65 | 733.1 |
| 20260904181248 | 14 | 189 | 16.1 | 27.4 | 0.00 | 0.00 | 0.00 | 67 | 733.1 |
| 20260904180745 | 14 | 185 | 16.1 | 30.6 | 0.00 | 0.00 | 0.00 | 66 | 733.1 |
| 20260904180245 | 14 | 188 | 11.3 | 22.5 | 0.00 | 0.00 | 0.00 | 67 | 733.1 |
| 20260904175753 | 14 | 192 | 9.7 | 25.7 | 0.00 | 0.00 | 0.00 | 67 | 733.1 |
| 20260904175245 | 14 | 194 | 14.5 | 25.7 | 0.00 | 0.00 | 0.00 | 67 | 733.1 |
| 20260904174748 | 13 | 173 | 12.9 | 22.5 | 0.00 | 0.00 | 0.00 | 72 | 733.1 |
| 20260904174244 | 13 | 189 | 16.1 | 29.0 | 0.00 | 0.00 | 0.00 | 70 | 733.1 |
| 20260904173748 | 13 | 186 | 16.1 | 33.8 | 0.00 | 0.00 | 0.00 | 68 | 733.1 |
| 20260904173245 | 13 | 184 | 14.5 | 32.2 | 0.00 | 0.00 | 0.00 | 71 | 732.8 |
| 20260904172747 | 13 | 187 | 16.1 | 27.4 | 0.00 | 0.00 | 0.00 | 69 | 732.8 |
| 20260904172245 | 13 | 181 | 12.9 | 25.7 | 0.00 | 0.00 | 0.00 | 72 | 732.8 |
| 20260904171745 | 13 | 190 | 16.1 | 25.7 | 0.00 | 0.00 | 0.00 | 70 | 732.8 |
| 20260904171251 | 13 | 185 | 11.3 | 30.6 | 0.00 | 0.00 | 0.00 | 69 | 732.8 |
| 20260904170745 | 13 | 198 | 12.9 | 25.7 | 0.00 | 0.00 | 0.00 | 72 | 732.8 |
| 20260904170248 | 13 | 187 | 14.5 | 30.6 | 0.00 | 0.00 | 0.00 | 71 | 732.8 |
| 20260904165745 | 13 | 188 | 19.3 | 33.8 | 0.00 | 0.00 | 0.00 | 71 | 732.5 |
| 20260904165245 | 13 | 186 | 14.5 | 30.6 | 0.00 | 0.00 | 0.00 | 73 | 732.5 |
| 20260904164744 | 13 | 185 | 20.9 | 35.4 | 0.00 | 0.00 | 0.00 | 74 | 732.1 |
| 20260904164249 | 13 | 187 | 22.5 | 35.4 | 0.00 | 0.00 | 0.00 | 74 | 732.1 |
| 20260904163751 | 13 | 190 | 19.3 | 35.4 | 0.00 | 0.00 | 0.00 | 75 | 732.1 |
| 20260904163248 | 13 | 187 | 16.1 | 29.0 | 0.00 | 0.00 | 0.00 | 75 | 732.1 |
| 20260904162748 | 12 | 191 | 17.7 | 32.2 | 0.00 | 0.00 | 0.00 | 78 | 732.1 |
| 20260904162245 | 12 | 189 | 19.3 | 37.0 | 0.00 | 0.00 | 0.00 | 79 | 732.1 |
| 20260904161744 | 12 | 185 | 19.3 | 32.2 | 0.00 | 0.00 | 0.00 | 80 | 732.1 |
| 20260904161248 | 12 | 188 | 24.1 | 33.8 | 0.00 | 0.00 | 0.00 | 81 | 732.1 |
| 20260904160751 | 12 | 187 | 22.5 | 41.8 | 0.00 | 0.00 | 0.00 | 82 | 731.8 |
| 20260904160247 | 12 | 183 | 24.1 | 41.8 | 0.00 | 0.00 | 0.00 | 82 | 731.8 |
| 20260904155747 | 12 | 186 | 22.5 | 35.4 | 0.00 | 0.00 | 0.00 | 85 | 731.8 |
| 20260904155245 | 12 | 186 | 25.7 | 37.0 | 0.00 | 0.00 | 0.00 | 86 | 731.8 |
| 20260904154747 | 11 | 188 | 27.4 | 41.8 | 0.00 | 0.00 | 0.00 | 86 | 731.4 |
| 20260904154245 | 11 | 189 | 29.0 | 41.8 | 0.00 | 0.00 | 0.00 | 86 | 731.4 |
| 20260904153745 | 11 | 189 | 27.4 | 41.8 | 0.00 | 0.00 | 0.00 | 89 | 731.4 |
| 20260904153247 | 11 | 187 | 25.7 | 43.5 | 0.00 | 0.00 | 0.00 | 89 | 731.4 |
| 20260904152744 | 11 | 189 | 27.4 | 43.5 | 0.00 | 0.00 | 0.00 | 89 | 731.4 |
| 20260904152244 | 11 | 188 | 33.8 | 45.1 | 0.00 | 0.00 | 0.00 | 89 | 731.4 |
| 20260904151747 | 11 | 187 | 27.4 | 41.8 | 0.00 | 0.00 | 0.00 | 91 | 731.4 |
| 20260904151244 | 10 | 186 | 30.6 | 38.6 | 0.00 | 0.00 | 0.00 | 92 | 731.4 |
| 20260904150747 | 10 | 186 | 30.6 | 46.7 | 0.00 | 0.00 | 0.00 | 93 | 731.4 |
| 20260904150245 | 10 | 185 | 32.2 | 45.1 | 0.00 | 0.00 | 0.00 | 94 | 731.4 |
| 20260904145745 | 10 | 187 | 30.6 | 41.8 | 0.00 | 0.00 | 0.00 | 95 | 731.1 |
| 20260904145244 | 10 | 185 | 32.2 | 40.2 | 0.00 | 0.00 | 0.00 | 95 | 731.1 |
| 20260904144745 | 10 | 185 | 30.6 | 43.5 | 0.00 | 0.00 | 0.00 | 95 | 731.1 |
| 20260904144245 | 10 | 184 | 30.6 | 40.2 | 0.00 | 0.00 | 0.00 | 94 | 731.1 |